Location: Austin
(30.3000°N, 97.7500°W)
Time: 00:34:04
(UTC-05:00)

Cosmos 1656 - Pass Details

Date: 06 May 2026
Orbit: 798 x 846 km, 71.1° (Epoch: 13 May)

Event Time Altitude Azimuth Distance (km) Brightness Sun altitude
Rises 21:16:12 0° 348° (NNW) 3,340 7.4 -13.4°
Reaches altitude 10° 21:18:44 10° 355° (N) 2,413 6.6 -13.9°
Maximum altitude 21:24:00 44° 67° (ENE) 1,123 4.1 -14.8°
Enters shadow 21:27:04 23° 127° (SE) 1,678 4.6 -15.4°
